Find Starlink 5062

NORAD ID: 55637 Int'l Des: 2023-021 Owner: SPXS Country: US Constellation: starlink operational
LEOCIRCULAR

リアルタイム位置

3D地球を読み込み中...

Starlink 5062について

説明を読み込み中...

次回通過

Passes for default location (London). Set your location on the main map for personalized predictions.

高度履歴

Loading altitude history...

軌道要素

1 55637U 23021K 26122.19783911 .00003772 00000-0 32362-3 0 9994
2 55637 70.0010 49.6557 0002738 266.4452 93.6394 14.98342678176809
Epoch: May 2, 2026 • Age: 15 hours

現在のステータス

高度 577.3 km
速度 7.57 km/s
衛星直下点 34.71°N, 88.07°W
打ち上げ日 Feb 17, 2023
運用期間 3.2 years
タイプ internet

技術仕様

分類 Payload
質量 305.00 kg
乾燥質量 290.00 kg
総質量 305.00 kg
長さ 0.20 m
直径 2.80 m
スパン 9.00 m
形状 Box + pan
製造者 SPXS
バスタイプ Starlink
フェーズステータス In Orbit
所有者/国 SPXS/US

Most Searched